Regional Weather Roundup
Issued by NWS Newport/Morehead, NC

Current Version | Previous Version | Graphics & Text | Print | Product List | Glossary On
Versions: 1 2 3 4 5 6 7 8 9 10 11 12 13 14 15 16 17 18 19 20 21 22 23 24 25 26 27 28 29 30 31 32 33 34 35 36 37 38 39 40 41 42 43 44 45
000 ASUS42 KMHX 201214 RWRMHX WEATHER ROUNDUP FOR EASTERN NORTH CAROLINA NATIONAL WEATHER SERVICE NEWPORT/MOREHEAD CITY NC 800 AM EDT SUN AUG 20 2017 NOTE: "FAIR" INDICATES FEW OR NO CLOUDS BELOW 12,000 FEET WITH NO SIGNIFICANT WEATHER AND/OR OBSTRUCTIONS TO VISIBILITY NCZ015>017-031-032-045>047-102-103-201300- NORTH COAST CITY SKY/WX TMP DP RH WIND PRES REMARKS EDENTON MOSUNNY 79 76 92 CALM 30.07R ELIZABETH CITY MOSUNNY 77 77 100 CALM 30.07R KITTY HAWK PTSUNNY 78 78 99 CALM 30.06R MANTEO MOSUNNY 77 75 94 CALM 30.07R $$ NCZ045>047-081-094-103-104-201300- CENTRAL COAST CITY SKY/WX TMP DP RH WIND PRES REMARKS FRISCO CLOUDY 77 76 96 W5 30.08R $$ NCZ095-097-098-100-101-201300- SOUTHERN COAST CITY SKY/WX TMP DP RH WIND PRES REMARKS BEAUFORT CLOUDY 77 77 100 E9 30.07S CEDAR ISLAND NOT AVBL JACKSONVILLE FOG 77 77 100 N3 30.06R VSB 3/4 PINEY ISLAND CLOUDY N/A N/A N/A CALM 30.07S WILMINGTON CLOUDY 76 75 97 CALM 30.05R $$ NCZ011>013-027>030-043-044-078>080-089-090>093-098-201300- COASTAL PLAIN CITY SKY/WX TMP DP RH WIND PRES REMARKS AHOSKIE FOG 69 69 99 CALM 30.07R VSB 1/4 CLINTON CLOUDY 74 74 100 CALM 30.07R VSB 1/4 ELIZABETHTOWN NOT AVBL GOLDSBORO SUNNY 76 76 100 VRB2 30.06R GREENVILLE MOSUNNY 73 73 100 CALM 30.08R HAVELOCK FOG 77 76 96 N5 30.08R VSB 1/4 KENANSVILLE FOG 73 73 100 CALM 30.08R VSB 1/4 KINSTON NOT AVBL NEW BERN CLOUDY 76 76 100 CALM 30.08R FOG RICHLANDS FOG 75 75 100 NE3 30.08R VSB<1/4 ROCKY MOUNT FOG 73 73 100 CALM 30.08R VSB 1 WASHINGTON SUNNY 73 73 98 CALM 30.08R WHITEVILLE CLOUDY 78 77 97 CALM 30.06R FOG $$ AMZ130-135-150-152-154-156-158-170-250-252-270-ANZ085-086-088-633-658-670-201300- MARINE OBSERVATIONS STATION/POSITION TIME TEMP WIND PRES WAVE SWELL AIR SEA DIR/SP/G HT/PER HT/PER (UTC) (F) (DEG/KT/KT) (MB) (FT/S) (FT/S) CHESAPEAKE LIGHT NOT AVBL 64 E VA BEACH 1150 79 78 CALM / 2 1018.3 2/ 8 2/ 8 DUCK 1136 78 72 310/ 3/ 4 1017.6 2 E DUCK 1200 77 N/A 2/ 9 OREGON INLET 1136 77 81 280/ 5/ 6 1017.8 13E OREGON INLT 1148 79 N/A 3/ 5 2/ 5 HATTERAS CG 1136 77 80 250/ 5/ 7 1018.1 DIAMOND BUOY 1150 80 82 270/ 10/ 10 1018.0 3/ 9 2/ 9 CAPE LOOKOUT 1200 76 70/ 13/ 15 1017.8 BEAUFORT LAB 1136 78 81 70/ 6/ 7 1017.7 30 SE NEW RVR IN 1108 80 83 260/ 12/ 19 1017.4 30 SE NEW RVR IN 1143 83 N/A 4/ 9 27 SE WRIGHTSVLE 1108 83 83 220/ 10/ 14 1017.2 5 SE WRIGHTSVLE 1108 82 83 300/ 6/ 8 1016.9 225 S CAPE HAT 1150 81 84 280/ 4/ 6 1019.2 3/ 9 3/ 9 41 SE CHARLESTON 1200 84 84 240/ 10/ 12 1017.2 $$

USA.gov is the U.S. government's official web portal to all federal, state and local government web resources and services.